| time (UTC) | temp F | wind direction | speed MPH | gust MPH | rain 1hr in | rain 24hr in | rain mn in | humidity % | barometer mb |
| 20260504110345 | 46 | 20 | 7.0 | 14.0 | 0.00 | 0.00 | 0.00 | 34 | 1013.6 |
| 20260504100258 | 48 | 35 | 5.0 | 6.0 | 0.00 | 0.00 | 0.00 | 24 | 1012.6 |
| 20260504081651 | 52 | 96 | 14.0 | 22.0 | 0.00 | 0.00 | 0.00 | 13 | 1010.7 |
| 20260504081147 | 52 | 84 | 10.0 | 16.0 | 0.00 | 0.00 | 0.00 | 13 | 1010.7 |
| 20260504080644 | 52 | 62 | 12.0 | 15.0 | 0.00 | 0.00 | 0.00 | 13 | 1010.6 |
| 20260504080140 | 52 | 76 | 16.0 | 21.0 | 0.00 | 0.00 | 0.00 | 12 | 1010.3 |
| 20260504070109 | 54 | 20 | 7.0 | 9.0 | 0.00 | 0.00 | 0.00 | 14 | 1009.2 |
| 20260504050457 | 53 | 20 | 0.0 | 0.0 | 0.00 | 0.00 | 0.00 | 12 | 1007.3 |
| 20260504045954 | 54 | 20 | 3.0 | 3.0 | 0.00 | 0.00 | 0.00 | 12 | 1007.3 |
| 20260504045450 | 54 | 20 | 0.0 | 0.0 | 0.00 | 0.00 | 0.00 | 12 | 1007.5 |
| 20260504044946 | 57 | 20 | 0.0 | 0.0 | 0.00 | 0.00 | 0.00 | 10 | 1007.4 |
| 20260504044443 | 57 | 20 | 0.0 | 0.0 | 0.00 | 0.00 | 0.00 | 10 | 1007.4 |
| 20260504043941 | 57 | 20 | 2.0 | 2.0 | 0.00 | 0.00 | 0.00 | 10 | 1007.3 |
| 20260504043437 | 55 | 20 | 3.0 | 3.0 | 0.00 | 0.00 | 0.00 | 10 | 1007.3 |
| 20260504042935 | 53 | 20 | 3.0 | 3.0 | 0.00 | 0.00 | 0.00 | 14 | 1007.4 |
| 20260504042432 | 54 | 20 | 3.0 | 3.0 | 0.00 | 0.00 | 0.00 | 13 | 1007.3 |
| 20260504041928 | 60 | 20 | 2.0 | 2.0 | 0.00 | 0.00 | 0.00 | 10 | 1007.2 |
| 20260504041424 | 60 | 20 | 2.0 | 3.0 | 0.00 | 0.00 | 0.00 | 10 | 1007.3 |
| 20260504040920 | 60 | 20 | 4.0 | 5.0 | 0.00 | 0.00 | 0.00 | 10 | 1007.4 |
| 20260504040419 | 59 | 20 | 3.0 | 5.0 | 0.00 | 0.00 | 0.00 | 10 | 1007.3 |
| 20260504035914 | 61 | 20 | 1.0 | 2.0 | 0.00 | 0.00 | 0.00 | 10 | 1007.4 |
| 20260504035412 | 61 | 21 | 5.0 | 5.0 | 0.00 | 0.00 | 0.00 | 10 | 1007.4 |
| 20260504034908 | 61 | 26 | 3.0 | 3.0 | 0.00 | 0.00 | 0.00 | 10 | 1007.4 |
| 20260504034405 | 62 | 31 | 5.0 | 6.0 | 0.00 | 0.00 | 0.00 | 10 | 1007.5 |
| 20260504033902 | 62 | 31 | 7.0 | 8.0 | 0.00 | 0.00 | 0.00 | 10 | 1007.2 |
| 20260504033400 | 62 | 26 | 6.0 | 7.0 | 0.00 | 0.00 | 0.00 | 10 | 1007.4 |
| 20260504032856 | 62 | 22 | 7.0 | 8.0 | 0.00 | 0.00 | 0.00 | 10 | 1007.3 |
| 20260504032353 | 62 | 20 | 6.0 | 7.0 | 0.00 | 0.00 | 0.00 | 10 | 1007.2 |
| 20260504031850 | 62 | 20 | 7.0 | 9.0 | 0.00 | 0.00 | 0.00 | 10 | 1007.2 |
| 20260504031347 | 62 | 20 | 6.0 | 9.0 | 0.00 | 0.00 | 0.00 | 10 | 1007.2 |
| 20260504030844 | 63 | 20 | 7.0 | 8.0 | 0.00 | 0.00 | 0.00 | 10 | 1006.8 |
| 20260504030342 | 63 | 20 | 7.0 | 9.0 | 0.00 | 0.00 | 0.00 | 10 | 1007.0 |
| 20260504025837 | 62 | 20 | 6.0 | 6.0 | 0.00 | 0.00 | 0.00 | 10 | 1007.0 |
| 20260504025334 | 63 | 20 | 4.0 | 5.0 | 0.00 | 0.00 | 0.00 | 10 | 1007.2 |
| 20260504024831 | 64 | 20 | 5.0 | 6.0 | 0.00 | 0.00 | 0.00 | 10 | 1006.8 |
| 20260504024327 | 63 | 21 | 6.0 | 7.0 | 0.00 | 0.00 | 0.00 | 10 | 1006.7 |
| 20260504023824 | 64 | 20 | 4.0 | 5.0 | 0.00 | 0.00 | 0.00 | 10 | 1006.7 |
| 20260504023321 | 65 | 20 | 4.0 | 5.0 | 0.00 | 0.00 | 0.00 | 10 | 1007.0 |
| 20260504022816 | 65 | 20 | 4.0 | 6.0 | 0.00 | 0.00 | 0.00 | 10 | 1006.7 |
| 20260504022314 | 66 | 20 | 5.0 | 6.0 | 0.00 | 0.00 | 0.00 | 10 | 1006.7 |
| 20260504021810 | 67 | 20 | 6.0 | 8.0 | 0.00 | 0.00 | 0.00 | 10 | 1006.7 |
| 20260504021308 | 68 | 20 | 7.0 | 8.0 | 0.00 | 0.00 | 0.00 | 10 | 1006.5 |
| 20260504020804 | 68 | 20 | 7.0 | 9.0 | 0.00 | 0.00 | 0.00 | 10 | 1006.5 |
| 20260504020301 | 68 | 20 | 7.0 | 8.0 | 0.00 | 0.00 | 0.00 | 10 | 1006.4 |
| 20260504015757 | 68 | 20 | 7.0 | 8.0 | 0.00 | 0.00 | 0.00 | 10 | 1006.6 |
| 20260504015253 | 69 | 20 | 9.0 | 10.0 | 0.00 | 0.00 | 0.00 | 10 | 1006.6 |
| 20260504014749 | 69 | 22 | 9.0 | 10.0 | 0.00 | 0.00 | 0.00 | 10 | 1006.7 |
| 20260504014246 | 69 | 22 | 9.0 | 10.0 | 0.00 | 0.00 | 0.00 | 10 | 1006.5 |
| 20260504013744 | 70 | 22 | 6.0 | 9.0 | 0.00 | 0.00 | 0.00 | 10 | 1006.4 |
| 20260504013241 | 70 | 24 | 12.0 | 15.0 | 0.00 | 0.00 | 0.00 | 10 | 1006.7 |
| 20260504012738 | 70 | 20 | 11.0 | 14.0 | 0.00 | 0.00 | 0.00 | 10 | 1006.4 |
| 20260504012236 | 71 | 20 | 8.0 | 10.0 | 0.00 | 0.00 | 0.00 | 10 | 1006.5 |
| 20260504011732 | 71 | 21 | 12.0 | 14.0 | 0.00 | 0.00 | 0.00 | 10 | 1006.7 |
| 20260504011229 | 71 | 21 | 11.0 | 13.0 | 0.00 | 0.00 | 0.00 | 10 | 1006.4 |
| 20260504010725 | 71 | 20 | 13.0 | 15.0 | 0.00 | 0.00 | 0.00 | 10 | 1006.5 |
| 20260504010220 | 72 | 20 | 13.0 | 15.0 | 0.00 | 0.00 | 0.00 | 10 | 1006.8 |
| 20260504005717 | 72 | 20 | 11.0 | 15.0 | 0.00 | 0.00 | 0.00 | 10 | 1006.7 |
| 20260504005215 | 72 | 21 | 11.0 | 14.0 | 0.00 | 0.00 | 0.00 | 10 | 1006.8 |
| 20260504004712 | 73 | 22 | 7.0 | 8.0 | 0.00 | 0.00 | 0.00 | 10 | 1006.8 |
| 20260504004209 | 72 | 25 | 12.0 | 14.0 | 0.00 | 0.00 | 0.00 | 10 | 1006.8 |
| 20260504003706 | 72 | 27 | 9.0 | 13.0 | 0.00 | 0.00 | 0.00 | 10 | 1006.6 |
| 20260504003203 | 72 | 29 | 14.0 | 17.0 | 0.00 | 0.00 | 0.00 | 10 | 1006.5 |
| 20260504002659 | 72 | 30 | 16.0 | 18.0 | 0.00 | 0.00 | 0.00 | 10 | 1006.6 |
| 20260504002156 | 73 | 27 | 12.0 | 15.0 | 0.00 | 0.00 | 0.00 | 10 | 1006.7 |
| 20260504001655 | 73 | 28 | 11.0 | 14.0 | 0.00 | 0.00 | 0.00 | 10 | 1006.8 |
| 20260504001150 | 73 | 32 | 9.0 | 11.0 | 0.00 | 0.00 | 0.00 | 10 | 1006.8 |
| 20260504000647 | 74 | 38 | 13.0 | 15.0 | 0.00 | 0.00 | 0.00 | 10 | 1006.7 |
| 20260504000145 | 74 | 47 | 10.0 | 13.0 | 0.00 | 0.00 | 0.00 | 10 | 1006.4 |
| 20260503235643 | 73 | 61 | 9.0 | 13.0 | 0.00 | 0.00 | 0.00 | 10 | 1006.7 |
| 20260503235139 | 74 | 64 | 14.0 | 16.0 | 0.00 | 0.00 | 0.00 | 10 | 1006.7 |
| 20260503234638 | 74 | 56 | 9.0 | 16.0 | 0.00 | 0.00 | 0.00 | 10 | 1006.6 |
| 20260503234135 | 74 | 42 | 7.0 | 8.0 | 0.00 | 0.00 | 0.00 | 10 | 1006.7 |
| 20260503233632 | 75 | 34 | 9.0 | 14.0 | 0.00 | 0.00 | 0.00 | 10 | 1006.8 |
| 20260503233127 | 74 | 39 | 6.0 | 7.0 | 0.00 | 0.00 | 0.00 | 10 | 1007.2 |
| 20260503232625 | 74 | 49 | 6.0 | 8.0 | 0.00 | 0.00 | 0.00 | 10 | 1007.1 |
| 20260503232122 | 75 | 63 | 7.0 | 9.0 | 0.00 | 0.00 | 0.00 | 10 | 1007.1 |
| 20260503231620 | 74 | 65 | 7.0 | 8.0 | 0.00 | 0.00 | 0.00 | 10 | 1007.1 |
| 20260503231116 | 74 | 53 | 12.0 | 13.0 | 0.00 | 0.00 | 0.00 | 10 | 1007.1 |
| 20260503230613 | 75 | 47 | 4.0 | 6.0 | 0.00 | 0.00 | 0.00 | 10 | 1007.1 |
| 20260503230110 | 75 | 46 | 1.0 | 1.0 | 0.00 | 0.00 | 0.00 | 10 | 1007.1 |
| 20260503225608 | 75 | 53 | 5.0 | 6.0 | 0.00 | 0.00 | 0.00 | 10 | 1007.1 |
| 20260503225102 | 75 | 51 | 8.0 | 9.0 | 0.00 | 0.00 | 0.00 | 10 | 1007.3 |
| 20260503224600 | 75 | 51 | 10.0 | 11.0 | 0.00 | 0.00 | 0.00 | 10 | 1007.5 |
| 20260503224058 | 75 | 53 | 3.0 | 5.0 | 0.00 | 0.00 | 0.00 | 10 | 1007.7 |
| 20260503223556 | 74 | 60 | 5.0 | 6.0 | 0.00 | 0.00 | 0.00 | 10 | 1007.5 |
| 20260503223051 | 74 | 68 | 7.0 | 13.0 | 0.00 | 0.00 | 0.00 | 10 | 1007.7 |
| 20260503222549 | 75 | 51 | 8.0 | 11.0 | 0.00 | 0.00 | 0.00 | 10 | 1007.6 |
| 20260503222047 | 74 | 39 | 4.0 | 6.0 | 0.00 | 0.00 | 0.00 | 10 | 1007.8 |
| 20260503221545 | 74 | 45 | 8.0 | 10.0 | 0.00 | 0.00 | 0.00 | 10 | 1007.9 |
| 20260503221042 | 74 | 49 | 9.0 | 10.0 | 0.00 | 0.00 | 0.00 | 10 | 1007.9 |
| 20260503220538 | 74 | 30 | 5.0 | 7.0 | 0.00 | 0.00 | 0.00 | 10 | 1008.1 |
| 20260503220035 | 73 | 32 | 9.0 | 11.0 | 0.00 | 0.00 | 0.00 | 10 | 1008.1 |
| 20260503215532 | 73 | 34 | 0.0 | 0.0 | 0.00 | 0.00 | 0.00 | 10 | 1008.3 |
| 20260503215029 | 73 | 44 | 8.0 | 9.0 | 0.00 | 0.00 | 0.00 | 10 | 1008.3 |
| 20260503214527 | 73 | 51 | 6.0 | 8.0 | 0.00 | 0.00 | 0.00 | 10 | 1008.4 |
| 20260503214024 | 74 | 60 | 9.0 | 13.0 | 0.00 | 0.00 | 0.00 | 10 | 1008.5 |
| 20260503213522 | 75 | 40 | 6.0 | 8.0 | 0.00 | 0.00 | 0.00 | 10 | 1008.4 |
| 20260503213018 | 74 | 28 | 4.0 | 6.0 | 0.00 | 0.00 | 0.00 | 10 | 1008.8 |
| 20260503212516 | 73 | 27 | 2.0 | 2.0 | 0.00 | 0.00 | 0.00 | 10 | 1008.8 |
| 20260503212013 | 73 | 28 | 2.0 | 2.0 | 0.00 | 0.00 | 0.00 | 10 | 1009.1 |
| 20260503211510 | 73 | 32 | 10.0 | 11.0 | 0.00 | 0.00 | 0.00 | 10 | 1008.9 |
| 20260503211011 | 73 | 36 | 6.0 | 8.0 | 0.00 | 0.00 | 0.00 | 10 | 1008.9 |
| 20260503210508 | 74 | 35 | 2.0 | 3.0 | 0.00 | 0.00 | 0.00 | 10 | 1008.7 |
| 20260503210003 | 72 | 40 | 0.0 | 0.0 | 0.00 | 0.00 | 0.00 | 10 | 1009.2 |
| 20260503205500 | 72 | 53 | 3.0 | 5.0 | 0.00 | 0.00 | 0.00 | 10 | 1009.3 |
| 20260503204956 | 72 | 50 | 0.0 | 0.0 | 0.00 | 0.00 | 0.00 | 10 | 1009.5 |
| 20260503204454 | 72 | 39 | 3.0 | 6.0 | 0.00 | 0.00 | 0.00 | 10 | 1009.4 |
| 20260503203950 | 71 | 52 | 5.0 | 5.0 | 0.00 | 0.00 | 0.00 | 10 | 1009.6 |
| 20260503203448 | 71 | 89 | 7.0 | 8.0 | 0.00 | 0.00 | 0.00 | 10 | 1009.6 |
| 20260503202944 | 72 | 75 | 9.0 | 9.0 | 0.00 | 0.00 | 0.00 | 10 | 1009.8 |
| 20260503202443 | 71 | 71 | 4.0 | 6.0 | 0.00 | 0.00 | 0.00 | 10 | 1009.8 |
| 20260503201941 | 71 | 79 | 3.0 | 5.0 | 0.00 | 0.00 | 0.00 | 10 | 1010.1 |
| 20260503201438 | 70 | 93 | 6.0 | 8.0 | 0.00 | 0.00 | 0.00 | 10 | 1010.1 |
| 20260503200935 | 71 | 119 | 11.0 | 13.0 | 0.00 | 0.00 | 0.00 | 10 | 1010.2 |
| 20260503200431 | 71 | 128 | 8.0 | 8.0 | 0.00 | 0.00 | 0.00 | 10 | 1010.4 |
| 20260503195928 | 73 | 123 | 5.0 | 7.0 | 0.00 | 0.00 | 0.00 | 10 | 1010.6 |
| 20260503195426 | 71 | 128 | 9.0 | 10.0 | 0.00 | 0.00 | 0.00 | 10 | 1010.6 |
| 20260503194922 | 70 | 129 | 10.0 | 11.0 | 0.00 | 0.00 | 0.00 | 10 | 1010.6 |
| 20260503194419 | 70 | 141 | 9.0 | 10.0 | 0.00 | 0.00 | 0.00 | 10 | 1010.4 |
| 20260503193914 | 70 | 147 | 17.0 | 20.0 | 0.00 | 0.00 | 0.00 | 10 | 1010.6 |
| 20260503193410 | 70 | 136 | 9.0 | 10.0 | 0.00 | 0.00 | 0.00 | 10 | 1010.8 |
| 20260503192906 | 70 | 125 | 7.0 | 9.0 | 0.00 | 0.00 | 0.00 | 10 | 1011.0 |
| 20260503192401 | 69 | 111 | 4.0 | 6.0 | 0.00 | 0.00 | 0.00 | 10 | 1011.0 |
| 20260503191858 | 70 | 124 | 0.0 | 1.0 | 0.00 | 0.00 | 0.00 | 10 | 1011.3 |
| 20260503191355 | 69 | 128 | 3.0 | 3.0 | 0.00 | 0.00 | 0.00 | 10 | 1011.6 |
| 20260503190852 | 70 | 141 | 11.0 | 13.0 | 0.00 | 0.00 | 0.00 | 10 | 1011.6 |
| 20260503190349 | 69 | 146 | 17.0 | 20.0 | 0.00 | 0.00 | 0.00 | 10 | 1011.5 |
| 20260503185846 | 69 | 140 | 8.0 | 10.0 | 0.00 | 0.00 | 0.00 | 10 | 1011.5 |
| 20260503185342 | 69 | 143 | 14.0 | 16.0 | 0.00 | 0.00 | 0.00 | 10 | 1011.8 |
| 20260503184842 | 69 | 141 | 7.0 | 8.0 | 0.00 | 0.00 | 0.00 | 10 | 1011.7 |
| 20260503184338 | 68 | 135 | 6.0 | 8.0 | 0.00 | 0.00 | 0.00 | 10 | 1011.9 |
| 20260503183834 | 69 | 121 | 7.0 | 9.0 | 0.00 | 0.00 | 0.00 | 13 | 1012.0 |
| 20260503183332 | 69 | 110 | 5.0 | 7.0 | 0.00 | 0.00 | 0.00 | 12 | 1011.9 |
| 20260503182829 | 68 | 126 | 4.0 | 6.0 | 0.00 | 0.00 | 0.00 | 12 | 1012.2 |
| 20260503182328 | 67 | 125 | 9.0 | 9.0 | 0.00 | 0.00 | 0.00 | 11 | 1012.2 |
| 20260503181825 | 68 | 124 | 14.0 | 18.0 | 0.00 | 0.00 | 0.00 | 13 | 1012.0 |
| 20260503181322 | 69 | 112 | 7.0 | 8.0 | 0.00 | 0.00 | 0.00 | 15 | 1012.0 |
| 20260503180818 | 68 | 103 | 9.0 | 10.0 | 0.00 | 0.00 | 0.00 | 16 | 1011.9 |
| 20260503180317 | 68 | 92 | 12.0 | 15.0 | 0.00 | 0.00 | 0.00 | 20 | 1012.4 |
| 20260503175812 | 68 | 91 | 5.0 | 7.0 | 0.00 | 0.00 | 0.00 | 22 | 1012.6 |
| 20260503175311 | 68 | 95 | 5.0 | 6.0 | 0.00 | 0.00 | 0.00 | 22 | 1012.8 |
| 20260503174806 | 65 | 96 | 7.0 | 8.0 | 0.00 | 0.00 | 0.00 | 23 | 1012.7 |
| 20260503174305 | 66 | 89 | 7.0 | 13.0 | 0.00 | 0.00 | 0.00 | 25 | 1012.7 |
| 20260503173800 | 66 | 91 | 13.0 | 15.0 | 0.00 | 0.00 | 0.00 | 24 | 1013.2 |
| 20260503173256 | 66 | 87 | 13.0 | 15.0 | 0.00 | 0.00 | 0.00 | 28 | 1012.8 |
| 20260503172753 | 64 | 77 | 8.0 | 9.0 | 0.00 | 0.00 | 0.00 | 30 | 1013.3 |
| 20260503172251 | 66 | 60 | 11.0 | 13.0 | 0.00 | 0.00 | 0.00 | 29 | 1013.2 |
| 20260503171747 | 65 | 48 | 7.0 | 8.0 | 0.00 | 0.00 | 0.00 | 34 | 1013.3 |
| 20260503171244 | 65 | 57 | 12.0 | 13.0 | 0.00 | 0.00 | 0.00 | 32 | 1013.3 |
| 20260503170741 | 65 | 50 | 7.0 | 8.0 | 0.00 | 0.00 | 0.00 | 32 | 1013.6 |
| 20260503170238 | 64 | 40 | 9.0 | 11.0 | 0.00 | 0.00 | 0.00 | 35 | 1013.5 |
| 20260503160200 | 60 | 38 | 10.0 | 11.0 | 0.00 | 0.00 | 0.00 | 41 | 1014.1 |
| 20260503150630 | 56 | 58 | 12.0 | 15.0 | 0.00 | 0.00 | 0.00 | 51 | 1014.7 |
| 20260503150126 | 55 | 54 | 8.0 | 8.0 | 0.00 | 0.00 | 0.00 | 54 | 1014.6 |
| 20260503131014 | 46 | 49 | 3.0 | 3.0 | 0.00 | 0.00 | 0.00 | 70 | 1015.0 |
| 20260503130511 | 46 | 46 | 3.0 | 3.0 | 0.00 | 0.00 | 0.00 | 69 | 1015.3 |